Weather History for KVPS - May, 2013

Change the Weather History Date:

Friday, May 24, 2013

  Actual Average Record
Temperature  
Mean Temperature 81 °F -  
Max Temperature 93 °F 84 °F 95 °F (2005)
Min Temperature 68 °F 62 °F 51 °F (1951)
Cooling Degree Days 16    
Growing Degree Days 31 (Base 50)    
Moisture  
Dew Point 59 °F    
Average Humidity 53    
Maximum Humidity 93    
Minimum Humidity 23    
Precipitation  
Precipitation 0.00 in - - ()
Sea Level Pressure  
Sea Level Pressure 30.10 in    
Wind  
Wind Speed 7 mph (North)    
Max Wind Speed 16 mph    
Max Gust Speed 22 mph    
Visibility 10 miles    
Events      
Averages and records for this station are not official NWS values.
T = Trace of Precipitation, MM = Missing Value Source: NWS Daily Summary

Daily Weather History Graph

Daily Weather History Graph

Search for Another Location

Airport or City:

Trip Planner

Search our weather history database for the weather conditions in past years. The results will help you decide how hot, cold, wet, or windy it might be!

Date:

Astronomy

May. 24, 2013 Rise Set
Actual Time 5:46 AM CDT 7:39 PM CDT
Civil Twilight 5:20 AM CDT 8:06 PM CDT
Nautical Twilight 4:47 AM CDT 8:38 PM CDT
Astronomical Twilight 4:13 AM CDT 9:13 PM CDT
Moon 7:22 PM CDT (5/24) 5:15 AM CDT (5/24)
Length of Visible Light 14h 46m
Length of Day
13h 52m
Full, 100% of the Moon is Illuminated
May 24
Full
May 24
Full
May 31
Last Quarter
Jun 8
New
Jun 16
First Quarter

Hourly Weather History & Observations

Time (CDT) Temp. Heat Index Dew Point Humidity Pressure Visibility Wind Dir Wind Speed Gust Speed Precip Events Conditions
12:55 AM 73.6 °F - 68.9 °F 85% 30.03 in 10.0 mi NW 4.6 mph - N/A   Mostly Cloudy
1:55 AM 73.6 °F - 69.3 °F 86% 30.03 in 10.0 mi WNW 3.5 mph - N/A   Mostly Cloudy
2:55 AM 72.0 °F - 69.3 °F 91% 30.03 in 10.0 mi NW 4.6 mph - N/A   Scattered Clouds
3:55 AM 71.6 °F - 69.3 °F 92% 30.04 in 10.0 mi NW 4.6 mph - N/A   Scattered Clouds
4:55 AM 70.9 °F - 68.7 °F 93% 30.04 in 10.0 mi NW 2.3 mph - N/A   Scattered Clouds
5:55 AM 70.2 °F - 68.0 °F 93% 30.06 in 10.0 mi NW 2.3 mph - N/A   Partly Cloudy
6:55 AM 73.2 °F - 66.9 °F 81% 30.06 in 10.0 mi North 8.1 mph - N/A   Partly Cloudy
7:55 AM 77.4 °F - 63.5 °F 62% 30.10 in 10.0 mi NNE 9.2 mph - N/A   Partly Cloudy
8:55 AM 80.6 °F 81.5 °F 61.2 °F 51% 30.12 in 10.0 mi NNE 12.7 mph - N/A   Scattered Clouds
9:55 AM 83.5 °F 83.7 °F 60.4 °F 46% 30.13 in 10.0 mi NNE 15.0 mph - N/A   Scattered Clouds
10:56 AM 85.8 °F 85.7 °F 60.3 °F 42% 30.13 in 10.0 mi North 10.4 mph - N/A   Mostly Cloudy
11:55 AM 89.2 °F 89.0 °F 60.3 °F 38% 30.12 in 10.0 mi NNW 10.4 mph 20.7 mph N/A   Mostly Cloudy
12:55 PM 90.0 °F 89.7 °F 60.8 °F 37% 30.12 in 10.0 mi North 16.1 mph 21.9 mph N/A   Mostly Cloudy
1:55 PM 91.0 °F 89.7 °F 57.0 °F 32% 30.11 in 10.0 mi NNW 9.2 mph 20.7 mph N/A   Mostly Cloudy
2:55 PM 90.9 °F 89.2 °F 56.3 °F 31% 30.10 in 10.0 mi NNW 12.7 mph 17.3 mph N/A   Scattered Clouds
3:56 PM 92.5 °F 90.7 °F 56.3 °F 29% 30.09 in 10.0 mi NNE 15.0 mph 18.4 mph N/A   Scattered Clouds
4:55 PM 91.6 °F - 48.4 °F 23% 30.10 in 10.0 mi NNW 12.7 mph 18.4 mph N/A   Partly Cloudy
5:55 PM 89.6 °F 87.3 °F 53.8 °F 29% 30.10 in 10.0 mi North 13.8 mph - N/A   Partly Cloudy
6:55 PM 86.5 °F - 52.3 °F 31% 30.10 in 10.0 mi North 11.5 mph - N/A   Partly Cloudy
7:55 PM 81.9 °F - 48.9 °F 32% 30.11 in 10.0 mi North 9.2 mph - N/A   Partly Cloudy
8:55 PM 77.9 °F - 48.6 °F 36% 30.13 in 10.0 mi North 6.9 mph - N/A   Clear
9:55 PM 73.8 °F - 49.3 °F 42% 30.17 in 10.0 mi North 5.8 mph - N/A   Partly Cloudy
10:55 PM 72.3 °F - 50.0 °F 45% 30.18 in 10.0 mi North 4.6 mph - N/A   Scattered Clouds
11:55 PM 68.5 °F - 50.7 °F 53% 30.17 in 10.0 mi North 3.5 mph - N/A   Partly Cloudy